"Pseudo-MPEC" for P22l8RK

Created 2026 Feb 16 7:35:14 UT using Find_Orb

Click here for an explanation of pseudo-MPECs

 
 Astrometry: 
     P22l8RK*0C2026 01 28.59435012 16 52.370-19 28 51.81   ~29Bo 22.73wXNEOCPF52
     P22l8RK 0C2026 01 28.60554512 16 52.002-19 29 01.66   ~29Bo 22.07wXNEOCPF52
     P22l8RK 0C2026 01 28.61676512 16 51.596-19 29 12.27   ~29Bo 22.62wXNEOCPF52

Station data:
(F52) Pan-STARRS 2, Haleakala  (N20.707382 W156.255910)  US/Hawaii.
   Observers J. Herman, T. Lowe, P. Minguez, A. Schultz, I. Smith. Measurers
   K. Chambers, T. de Boer, J. Fairlamb, H. Gao, M. Huber, C.-C. Lin, E.
   Magnier, Y. Ramanjooloo, R. Wainscoat, R. Weryk. 1.8-m Ritchey-Chrétien +
   CCD.

Orbital elements:  P22l8RK
   Perihelion 2026 May 10.926903 +/- 160 TT = 22:14:44.4 (JD 2461171.426903)
Epoch 2026 Jan 29.0 TT = JDT 2461069.5   Earth MOID: 0.0586   Ve: 0.0482
M 286.651262850 +/- 70              Me: 0.0496   Ma: 0.0763      AutoNEOCP
n   0.719620973 +/- 0.623           Peri.   17.351960 +/- 90
a   1.233294630 +/- 0.712           Node   313.457779 +/- 80
e   0.92784881 +/- 0.25             Incl.   20.612447 +/- 38
P   1.370/500.254d         H 19.48  G  0.15   U 12.5  SR
q 0.088983674 +/- 0.966    Q 2.377605587 +/- 30.3         (J2000 ecliptic)
From 3 observations 2026 Jan. 28 (32.3 min); mean residual 0".15
Residuals in arcseconds: 
260128 F52  .09-  .13-    260128 F52  .17+  .25+    260128 F52  .09-  .12-    

Ephemerides (geocentric):
Date (UTC) HH   RA             Dec           delta  r     elong  mag " sig PA
---- --------  ------------   ------------  ------ ------ -----  --- --------
2026 02 16 08  11 52 04.339   -24 47 58.15  .77960 1.6263 133.5 21.2  59d  77
2026 02 16 09  11 51 58.258   -24 48 45.15  .77885 1.6259 133.6 21.2  59d  77
2026 02 16 10  11 51 52.161   -24 49 32.15  .77810 1.6254 133.6 21.2  59d  77
2026 02 16 11  11 51 46.047   -24 50 19.18  .77735 1.6250 133.7 21.2  59d  77
2026 02 16 12  11 51 39.915   -24 51 06.21  .77660 1.6246 133.7 21.2  59d  77
2026 02 16 13  11 51 33.767   -24 51 53.27  .77585 1.6242 133.7 21.2  59d  77
2026 02 16 14  11 51 27.603   -24 52 40.33  .77510 1.6237 133.8 21.2  59d  77
2026 02 16 15  11 51 21.421   -24 53 27.41  .77435 1.6233 133.8 21.2  59d  77
2026 02 16 16  11 51 15.222   -24 54 14.51  .77360 1.6229 133.9 21.2  59d  77
2026 02 16 17  11 51 09.006   -24 55 01.62  .77285 1.6225 133.9 21.2  59d  77
2026 02 16 18  11 51 02.773   -24 55 48.74  .77211 1.6220 133.9 21.2  59d  77
2026 02 16 19  11 50 56.523   -24 56 35.88  .77136 1.6216 134.0 21.2  59d  77
2026 02 16 20  11 50 50.256   -24 57 23.03  .77061 1.6212 134.0 21.2  59d  77
2026 02 16 21  11 50 43.972   -24 58 10.19  .76987 1.6207 134.1 21.1  59d  77
2026 02 16 22  11 50 37.670   -24 58 57.37  .76912 1.6203 134.1 21.1  59d  77
2026 02 16 23  11 50 31.352   -24 59 44.56  .76837 1.6199 134.1 21.1  59d  77
2026 02 17 00  11 50 25.016   -25 00 31.77  .76763 1.6194 134.2 21.1  60d  77
2026 02 17 01  11 50 18.662   -25 01 18.99  .76688 1.6190 134.2 21.1  60d  77
2026 02 17 02  11 50 12.292   -25 02 06.22  .76614 1.6186 134.2 21.1  60d  77
2026 02 17 03  11 50 05.904   -25 02 53.47  .76540 1.6182 134.3 21.1  60d  77
2026 02 17 04  11 49 59.498   -25 03 40.73  .76465 1.6177 134.3 21.1  60d  77
2026 02 17 05  11 49 53.075   -25 04 28.00  .76391 1.6173 134.4 21.1  60d  77
2026 02 17 06  11 49 46.634   -25 05 15.28  .76317 1.6169 134.4 21.1  60d  77
2026 02 17 07  11 49 40.176   -25 06 02.58  .76242 1.6164 134.4 21.1  60d  77
2026 02 17 08  11 49 33.701   -25 06 49.89  .76168 1.6160 134.5 21.1  60d  77
2026 02 17 09  11 49 27.207   -25 07 37.21  .76094 1.6156 134.5 21.1  60d  77
2026 02 17 10  11 49 20.696   -25 08 24.55  .76020 1.6151 134.6 21.1  60d  77
2026 02 17 11  11 49 14.168   -25 09 11.90  .75946 1.6147 134.6 21.1  60d  77
2026 02 17 12  11 49 07.621   -25 09 59.26  .75872 1.6143 134.6 21.1  60d  77
2026 02 17 13  11 49 01.057   -25 10 46.63  .75797 1.6139 134.7 21.1  60d  77
2026 02 17 14  11 48 54.475   -25 11 34.01  .75723 1.6134 134.7 21.1  60d  77
2026 02 17 15  11 48 47.875   -25 12 21.41  .75650 1.6130 134.8 21.1  60d  77
2026 02 17 16  11 48 41.257   -25 13 08.82  .75576 1.6126 134.8 21.1  60d  77
2026 02 17 17  11 48 34.621   -25 13 56.24  .75502 1.6121 134.8 21.1  60d  77
2026 02 17 18  11 48 27.967   -25 14 43.67  .75428 1.6117 134.9 21.1  60d  77
2026 02 17 19  11 48 21.295   -25 15 31.12  .75354 1.6113 134.9 21.1  60d  77
2026 02 17 20  11 48 14.605   -25 16 18.57  .75280 1.6108 135.0 21.1  60d  76
2026 02 17 21  11 48 07.897   -25 17 06.04  .75207 1.6104 135.0 21.1  60d  76
2026 02 17 22  11 48 01.170   -25 17 53.52  .75133 1.6100 135.0 21.1  60d  76
2026 02 17 23  11 47 54.426   -25 18 41.01  .75059 1.6095 135.1 21.1  60d  76
2026 02 18 00  11 47 47.663   -25 19 28.51  .74986 1.6091 135.1 21.1  60d  76
2026 02 18 01  11 47 40.882   -25 20 16.02  .74912 1.6087 135.2 21.1  60d  76
2026 02 18 02  11 47 34.083   -25 21 03.54  .74838 1.6082 135.2 21.1  60d  76
2026 02 18 03  11 47 27.265   -25 21 51.07  .74765 1.6078 135.2 21.1  60d  76
2026 02 18 04  11 47 20.429   -25 22 38.62  .74691 1.6074 135.3 21.1  60d  76
2026 02 18 05  11 47 13.574   -25 23 26.17  .74618 1.6069 135.3 21.1  60d  76
2026 02 18 06  11 47 06.701   -25 24 13.74  .74545 1.6065 135.3 21.0  60d  76
2026 02 18 07  11 46 59.809   -25 25 01.31  .74471 1.6061 135.4 21.0  60d  76